| time (UTC) | temp F | wind direction | speed MPH | gust MPH | rain 1hr in | rain 24hr in | rain mn in | humidity % | barometer mb |
| 20260506235344 | 54 | 225 | 1.0 | 2.0 | 0.00 | 0.99 | 0.99 | 99 | 1017.0 |
| 20260506234840 | 53 | 112 | 0.0 | 1.0 | 0.00 | 0.99 | 0.99 | 99 | 1016.3 |
| 20260506234338 | 53 | 161 | 0.0 | 1.0 | 0.00 | 0.99 | 0.99 | 99 | 1016.2 |
| 20260506233836 | 53 | 120 | 0.0 | 0.0 | 0.00 | 0.99 | 0.99 | 99 | 1015.7 |
| 20260506233331 | 53 | 88 | 0.0 | 1.0 | 0.00 | 0.99 | 0.99 | 99 | 1015.7 |
| 20260506232828 | 53 | 67 | 0.0 | 1.0 | 0.00 | 0.99 | 0.99 | 99 | 1015.6 |
| 20260506232324 | 53 | 95 | 0.0 | 1.0 | 0.00 | 0.99 | 0.99 | 99 | 1016.4 |
| 20260506231820 | 53 | 71 | 0.0 | 1.0 | 0.00 | 0.99 | 0.99 | 99 | 1016.4 |
| 20260506231319 | 53 | 197 | 0.0 | 1.0 | 0.00 | 0.99 | 0.99 | 99 | 1016.6 |
| 20260506230816 | 53 | 29 | 0.0 | 1.0 | 0.00 | 0.99 | 0.99 | 99 | 1016.4 |
| 20260506230312 | 53 | 286 | 3.0 | 3.0 | 0.00 | 0.99 | 0.99 | 99 | 1016.3 |
| 20260506225808 | 53 | 165 | 1.0 | 2.0 | 0.00 | 0.99 | 0.99 | 99 | 1016.3 |
| 20260506225306 | 53 | 52 | 1.0 | 1.0 | 0.00 | 0.99 | 0.99 | 99 | 1016.4 |
| 20260506224803 | 53 | 105 | 0.0 | 1.0 | 0.00 | 0.99 | 0.99 | 99 | 1016.5 |
| 20260506224300 | 53 | 130 | 0.0 | 0.0 | 0.00 | 0.99 | 0.99 | 99 | 1016.8 |
| 20260506223756 | 53 | 94 | 0.0 | 2.0 | 0.00 | 0.99 | 0.99 | 99 | 1016.8 |
| 20260506223251 | 53 | 123 | 0.0 | 1.0 | 0.00 | 0.99 | 0.99 | 99 | 1017.6 |
| 20260506222748 | 53 | 133 | 0.0 | 1.0 | 0.00 | 0.99 | 0.99 | 99 | 1017.6 |
| 20260506222244 | 53 | 132 | 1.0 | 2.0 | 0.00 | 0.99 | 0.99 | 99 | 1016.8 |
| 20260506221742 | 53 | 263 | 2.0 | 3.0 | 0.00 | 0.99 | 0.99 | 99 | 1016.8 |
| 20260506221240 | 53 | 320 | 2.0 | 3.0 | 0.00 | 0.99 | 0.99 | 99 | 1016.8 |
| 20260506220737 | 53 | 168 | 0.0 | 1.0 | 0.00 | 0.99 | 0.99 | 99 | 1017.3 |
| 20260506220232 | 53 | 21 | 0.0 | 1.0 | 0.00 | 0.99 | 0.99 | 99 | 1017.2 |
| 20260506215729 | 53 | 227 | 0.0 | 1.0 | 0.00 | 0.99 | 0.99 | 99 | 1017.3 |
| 20260506215224 | 53 | 128 | 0.0 | 1.0 | 0.00 | 0.99 | 0.99 | 99 | 1017.1 |
| 20260506214721 | 53 | 130 | 0.0 | 1.0 | 0.00 | 0.99 | 0.99 | 99 | 1017.3 |
| 20260506214218 | 53 | 84 | 0.0 | 0.0 | 0.00 | 0.99 | 0.99 | 99 | 1017.4 |
| 20260506213716 | 54 | 163 | 1.0 | 1.0 | 0.00 | 0.99 | 0.99 | 99 | 1017.0 |
| 20260506213214 | 54 | 114 | 0.0 | 1.0 | 0.07 | 0.99 | 0.99 | 99 | 1016.9 |
| 20260506212711 | 54 | 128 | 0.0 | 1.0 | 0.07 | 0.99 | 0.99 | 99 | 1017.1 |
| 20260506212206 | 54 | 123 | 0.0 | 1.0 | 0.00 | 0.98 | 0.98 | 99 | 1017.4 |
| 20260506211702 | 54 | 112 | 0.0 | 1.0 | 0.00 | 0.98 | 0.98 | 99 | 1017.7 |
| 20260506211158 | 54 | 194 | 1.0 | 1.0 | 0.00 | 0.98 | 0.98 | 99 | 1017.4 |
| 20260506210655 | 54 | 46 | 1.0 | 2.0 | 0.00 | 0.98 | 0.98 | 99 | 1017.2 |
| 20260506210152 | 54 | 81 | 0.0 | 1.0 | 0.00 | 0.98 | 0.98 | 99 | 1017.0 |
| 20260506205650 | 54 | 183 | 0.0 | 2.0 | 0.05 | 0.98 | 0.98 | 99 | 1016.7 |
| 20260506205150 | 54 | 70 | 1.0 | 1.0 | 0.05 | 0.98 | 0.98 | 99 | 1016.6 |
| 20260506204648 | 54 | 188 | 1.0 | 2.0 | 0.00 | 0.97 | 0.97 | 99 | 1015.9 |
| 20260506204144 | 54 | 81 | 1.0 | 1.0 | 0.07 | 0.97 | 0.97 | 99 | 1016.1 |
| 20260506203643 | 54 | 40 | 1.0 | 2.0 | 0.00 | 0.96 | 0.96 | 99 | 1015.9 |
| 20260506203139 | 54 | 103 | 1.0 | 2.0 | 0.07 | 0.96 | 0.96 | 99 | 1015.5 |
| 20260506202637 | 54 | 98 | 1.0 | 2.0 | 0.07 | 0.96 | 0.96 | 99 | 1016.1 |
| 20260506202133 | 54 | 39 | 0.0 | 2.0 | 0.00 | 0.95 | 0.95 | 99 | 1016.1 |
| 20260506201630 | 54 | 221 | 2.0 | 2.0 | 0.00 | 0.95 | 0.95 | 99 | 1016.4 |
| 20260506201127 | 54 | 142 | 0.0 | 1.0 | 0.05 | 0.95 | 0.95 | 99 | 1016.4 |
| 20260506200623 | 55 | 26 | 1.0 | 2.0 | 0.05 | 0.95 | 0.95 | 99 | 1016.6 |
| 20260506200120 | 55 | 110 | 2.0 | 2.0 | 0.00 | 0.94 | 0.94 | 99 | 1016.4 |
| 20260506195617 | 55 | 132 | 1.0 | 1.0 | 0.07 | 0.94 | 0.94 | 99 | 1016.7 |
| 20260506195113 | 55 | 132 | 0.0 | 0.0 | 0.07 | 0.94 | 0.94 | 99 | 1016.9 |
| 20260506194611 | 55 | 221 | 0.0 | 1.0 | 0.00 | 0.93 | 0.93 | 99 | 1016.8 |
| 20260506194107 | 55 | 203 | 1.0 | 2.0 | 0.00 | 0.93 | 0.93 | 99 | 1016.7 |
| 20260506193605 | 55 | 262 | 2.0 | 2.0 | 0.00 | 0.93 | 0.93 | 99 | 1016.6 |
| 20260506193102 | 55 | 95 | 1.0 | 1.0 | 0.00 | 0.93 | 0.93 | 99 | 1016.5 |
| 20260506192559 | 55 | 95 | 0.0 | 1.0 | 0.00 | 0.93 | 0.93 | 99 | 1015.9 |
| 20260506192054 | 55 | 90 | 1.0 | 1.0 | 0.00 | 0.93 | 0.93 | 99 | 1016.3 |
| 20260506191551 | 56 | 17 | 1.0 | 2.0 | 0.00 | 0.93 | 0.93 | 99 | 1016.3 |
| 20260506191047 | 56 | 206 | 1.0 | 1.0 | 0.00 | 0.93 | 0.93 | 99 | 1016.2 |
| 20260506190545 | 56 | 148 | 1.0 | 1.0 | 0.00 | 0.93 | 0.93 | 99 | 1016.1 |
| 20260506190042 | 56 | 302 | 1.0 | 1.0 | 0.00 | 0.93 | 0.93 | 99 | 1016.5 |
| 20260506185539 | 56 | 32 | 1.0 | 1.0 | 0.00 | 0.93 | 0.93 | 99 | 1015.7 |
| 20260506185035 | 56 | 43 | 1.0 | 2.0 | 0.00 | 0.93 | 0.93 | 99 | 1015.8 |
| 20260506184533 | 56 | 68 | 0.0 | 1.0 | 0.00 | 0.93 | 0.93 | 99 | 1016.1 |
| 20260506184030 | 56 | 89 | 0.0 | 0.0 | 0.00 | 0.93 | 0.93 | 99 | 1016.5 |
| 20260506183525 | 56 | 143 | 0.0 | 1.0 | 0.00 | 0.93 | 0.93 | 99 | 1016.6 |
| 20260506183022 | 56 | 153 | 1.0 | 1.0 | 0.00 | 0.93 | 0.93 | 99 | 1016.8 |
| 20260506182520 | 56 | 113 | 0.0 | 1.0 | 0.00 | 0.93 | 0.93 | 99 | 1016.8 |
| 20260506182017 | 56 | 181 | 0.0 | 1.0 | 0.00 | 0.93 | 0.93 | 99 | 1016.7 |
| 20260506181515 | 56 | 114 | 0.0 | 1.0 | 0.05 | 0.93 | 0.93 | 99 | 1016.4 |
| 20260506181011 | 56 | 109 | 1.0 | 1.0 | 0.05 | 0.93 | 0.93 | 99 | 1016.8 |
| 20260506180508 | 56 | 94 | 0.0 | 1.0 | 0.00 | 0.92 | 0.92 | 99 | 1016.8 |
| 20260506180005 | 56 | 120 | 0.0 | 1.0 | 0.00 | 0.92 | 0.92 | 99 | 1016.8 |
| 20260506175501 | 56 | 130 | 0.0 | 0.0 | 0.00 | 0.92 | 0.92 | 99 | 1016.8 |
| 20260506174957 | 56 | 121 | 0.0 | 1.0 | 0.00 | 0.92 | 0.92 | 99 | 1016.5 |
| 20260506174456 | 56 | 309 | 1.0 | 2.0 | 0.00 | 0.92 | 0.92 | 99 | 1017.0 |
| 20260506173952 | 56 | 203 | 2.0 | 3.0 | 0.00 | 0.92 | 0.92 | 99 | 1016.7 |
| 20260506173450 | 56 | 239 | 2.0 | 5.0 | 0.00 | 0.92 | 0.92 | 99 | 1016.7 |
| 20260506172946 | 56 | 121 | 0.0 | 1.0 | 0.00 | 0.92 | 0.92 | 99 | 1016.1 |
| 20260506172444 | 56 | 137 | 1.0 | 1.0 | 0.00 | 0.92 | 0.92 | 99 | 1016.1 |
| 20260506171940 | 56 | 151 | 0.0 | 1.0 | 0.00 | 0.92 | 0.92 | 99 | 1016.1 |
| 20260506171437 | 56 | 177 | 0.0 | 1.0 | 0.00 | 0.92 | 0.92 | 99 | 1015.9 |
| 20260506170935 | 56 | 349 | 0.0 | 0.0 | 0.00 | 0.92 | 0.92 | 99 | 1015.9 |
| 20260506170431 | 56 | 59 | 0.0 | 2.0 | 0.00 | 0.92 | 0.92 | 99 | 1015.9 |
| 20260506165930 | 56 | 159 | 1.0 | 1.0 | 0.00 | 0.92 | 0.92 | 99 | 1016.4 |
| 20260506165428 | 56 | 155 | 0.0 | 0.0 | 0.00 | 0.92 | 0.92 | 99 | 1016.3 |
| 20260506164924 | 57 | 143 | 0.0 | 0.0 | 0.00 | 0.92 | 0.92 | 99 | 1016.3 |
| 20260506164421 | 57 | 134 | 0.0 | 0.0 | 0.00 | 0.92 | 0.92 | 99 | 1016.1 |
| 20260506163919 | 57 | 119 | 1.0 | 1.0 | 0.00 | 0.92 | 0.92 | 99 | 1016.2 |
| 20260506163414 | 56 | 80 | 0.0 | 1.0 | 0.00 | 0.92 | 0.92 | 99 | 1015.7 |
| 20260506162909 | 56 | 63 | 0.0 | 1.0 | 0.00 | 0.92 | 0.92 | 99 | 1015.5 |
| 20260506162407 | 56 | 343 | 1.0 | 2.0 | 0.00 | 0.92 | 0.92 | 99 | 1015.6 |
| 20260506161904 | 56 | 333 | 1.0 | 2.0 | 0.00 | 0.92 | 0.92 | 99 | 1015.9 |
| 20260506161401 | 57 | 98 | 0.0 | 1.0 | 0.00 | 0.92 | 0.92 | 99 | 1015.5 |
| 20260506160859 | 56 | 122 | 0.0 | 0.0 | 0.00 | 0.92 | 0.92 | 99 | 1015.7 |
| 20260506160356 | 56 | 116 | 1.0 | 1.0 | 0.07 | 0.92 | 0.92 | 99 | 1016.4 |
| 20260506155854 | 56 | 164 | 1.0 | 1.0 | 0.07 | 0.92 | 0.92 | 99 | 1016.9 |
| 20260506155350 | 56 | 167 | 0.0 | 1.0 | 0.05 | 0.91 | 0.91 | 99 | 1016.5 |
| 20260506153502 | 56 | 111 | 0.0 | 1.0 | 0.07 | 0.90 | 0.90 | 99 | 1016.2 |
| 20260506152959 | 56 | 110 | 0.0 | 1.0 | 0.07 | 0.90 | 0.90 | 99 | 1016.2 |
| 20260506152456 | 56 | 265 | 0.0 | 2.0 | 0.00 | 0.89 | 0.89 | 99 | 1016.2 |
| 20260506151954 | 56 | 254 | 1.0 | 1.0 | 0.00 | 0.89 | 0.89 | 99 | 1016.5 |
| 20260506151452 | 56 | 139 | 0.0 | 0.0 | 0.00 | 0.89 | 0.89 | 99 | 1016.2 |
| 20260506150949 | 56 | 78 | 0.0 | 1.0 | 0.00 | 0.89 | 0.89 | 99 | 1016.1 |
| 20260506150444 | 56 | 129 | 0.0 | 1.0 | 0.00 | 0.89 | 0.89 | 99 | 1015.9 |
| 20260506145942 | 57 | 203 | 1.0 | 2.0 | 0.00 | 0.89 | 0.89 | 99 | 1016.1 |
| 20260506145438 | 57 | 279 | 0.0 | 1.0 | 0.00 | 0.89 | 0.89 | 99 | 1015.9 |
| 20260506144936 | 57 | 33 | 1.0 | 1.0 | 0.00 | 0.89 | 0.89 | 99 | 1015.7 |
| 20260506144432 | 57 | 159 | 0.0 | 1.0 | 0.00 | 0.89 | 0.89 | 99 | 1015.7 |
| 20260506143931 | 57 | 135 | 0.0 | 1.0 | 0.00 | 0.89 | 0.89 | 99 | 1016.1 |
| 20260506143427 | 57 | 112 | 0.0 | 0.0 | 0.00 | 0.89 | 0.89 | 99 | 1015.7 |
| 20260506142926 | 57 | 56 | 1.0 | 1.0 | 0.00 | 0.89 | 0.89 | 99 | 1015.6 |
| 20260506142423 | 57 | 118 | 0.0 | 1.0 | 0.00 | 0.89 | 0.89 | 99 | 1015.6 |
| 20260506141921 | 57 | 132 | 0.0 | 1.0 | 0.00 | 0.89 | 0.89 | 99 | 1015.5 |
| 20260506141419 | 57 | 142 | 0.0 | 1.0 | 0.00 | 0.89 | 0.89 | 99 | 1015.0 |
| 20260506140917 | 57 | 140 | 0.0 | 1.0 | 0.00 | 0.89 | 0.89 | 99 | 1014.7 |
| 20260506140414 | 57 | 97 | 1.0 | 1.0 | 0.00 | 0.89 | 0.89 | 99 | 1014.8 |
| 20260506135911 | 57 | 130 | 1.0 | 1.0 | 0.00 | 0.89 | 0.89 | 99 | 1014.5 |
| 20260506135408 | 58 | 144 | 0.0 | 1.0 | 0.00 | 0.89 | 0.89 | 99 | 1014.5 |
| 20260506134904 | 58 | 202 | 0.0 | 1.0 | 0.00 | 0.89 | 0.89 | 99 | 1014.3 |
| 20260506134400 | 58 | 164 | 1.0 | 2.0 | 0.00 | 0.89 | 0.89 | 99 | 1013.9 |
| 20260506133857 | 59 | 146 | 0.0 | 1.0 | 0.00 | 0.89 | 0.89 | 99 | 1013.7 |
| 20260506133353 | 59 | 127 | 0.0 | 1.0 | 0.00 | 0.89 | 0.89 | 99 | 1013.8 |
| 20260506132850 | 59 | 166 | 0.0 | 0.0 | 0.00 | 0.89 | 0.89 | 99 | 1013.9 |
| 20260506132347 | 59 | 259 | 0.0 | 0.0 | 0.00 | 0.89 | 0.89 | 99 | 1013.3 |
| 20260506131846 | 59 | 101 | 0.0 | 0.0 | 0.00 | 0.89 | 0.89 | 99 | 1013.1 |
| 20260506131342 | 59 | 71 | 0.0 | 0.0 | 0.05 | 0.89 | 0.89 | 99 | 1012.9 |
| 20260506130839 | 59 | 82 | 0.0 | 0.0 | 0.05 | 0.89 | 0.89 | 99 | 1012.9 |
| 20260506130335 | 59 | 88 | 0.0 | 1.0 | 0.00 | 0.88 | 0.88 | 99 | 1013.3 |
| 20260506125833 | 59 | 91 | 0.0 | 1.0 | 0.00 | 0.88 | 0.88 | 99 | 1013.1 |
| 20260506125331 | 59 | 163 | 1.0 | 1.0 | 0.00 | 0.88 | 0.88 | 99 | 1013.8 |
| 20260506124830 | 59 | 119 | 0.0 | 0.0 | 0.00 | 0.88 | 0.88 | 99 | 1013.5 |
| 20260506124326 | 59 | 110 | 0.0 | 1.0 | 0.00 | 0.88 | 0.88 | 99 | 1013.3 |
| 20260506123824 | 59 | 95 | 0.0 | 1.0 | 0.00 | 0.88 | 0.88 | 99 | 1013.1 |
| 20260506123322 | 59 | 98 | 0.0 | 2.0 | 0.00 | 0.88 | 0.88 | 99 | 1013.3 |
| 20260506122819 | 60 | 62 | 1.0 | 2.0 | 0.00 | 0.88 | 0.88 | 99 | 1013.5 |
| 20260506122316 | 61 | 345 | 2.0 | 2.0 | 0.07 | 0.88 | 0.88 | 99 | 1013.5 |
| 20260506121814 | 61 | 133 | 0.0 | 0.0 | 0.05 | 0.87 | 0.87 | 99 | 1013.9 |
| 20260506121311 | 62 | 133 | 1.0 | 2.0 | 0.17 | 0.87 | 0.87 | 99 | 1013.2 |
| 20260506120808 | 63 | 29 | 1.0 | 3.0 | 0.24 | 0.85 | 0.85 | 99 | 1013.3 |
| 20260506120306 | 64 | 148 | 0.0 | 1.0 | 0.31 | 0.83 | 0.83 | 99 | 1013.8 |
| 20260506115803 | 65 | 123 | 0.0 | 2.0 | 0.59 | 0.81 | 0.81 | 99 | 1014.4 |
| 20260506115301 | 66 | 354 | 1.0 | 3.0 | 0.42 | 0.76 | 0.76 | 99 | 1014.8 |
| 20260506114759 | 66 | 208 | 0.0 | 2.0 | 0.19 | 0.70 | 0.70 | 99 | 1014.2 |
| 20260506114256 | 66 | 129 | 0.0 | 1.0 | 0.24 | 0.69 | 0.69 | 99 | 1014.1 |
| 20260506113754 | 66 | 171 | 2.0 | 2.0 | 0.17 | 0.67 | 0.67 | 99 | 1013.3 |
| 20260506113252 | 66 | 139 | 0.0 | 1.0 | 0.12 | 0.65 | 0.65 | 99 | 1012.7 |
| 20260506112748 | 66 | 96 | 0.0 | 1.0 | 0.00 | 0.63 | 0.63 | 99 | 1012.4 |
| 20260506112245 | 66 | 147 | 0.0 | 0.0 | 0.05 | 0.63 | 0.63 | 99 | 1012.5 |
| 20260506111743 | 66 | 162 | 0.0 | 1.0 | 0.05 | 0.63 | 0.63 | 99 | 1011.9 |
| 20260506111241 | 66 | 116 | 0.0 | 1.0 | 0.07 | 0.62 | 0.62 | 99 | 1011.7 |
| 20260506110737 | 66 | 101 | 0.0 | 0.0 | 0.12 | 0.62 | 0.62 | 99 | 1011.4 |
| 20260506110235 | 66 | 96 | 0.0 | 1.0 | 0.14 | 0.60 | 0.60 | 99 | 1011.8 |
| 20260506105731 | 66 | 125 | 0.0 | 0.0 | 0.26 | 0.60 | 0.60 | 99 | 1011.9 |
| 20260506105229 | 66 | 110 | 0.0 | 0.0 | 0.24 | 0.58 | 0.58 | 99 | 1011.7 |
| 20260506104726 | 66 | 85 | 2.0 | 2.0 | 0.17 | 0.56 | 0.56 | 99 | 1011.4 |
| 20260506104224 | 66 | 78 | 1.0 | 1.0 | 0.17 | 0.54 | 0.54 | 99 | 1011.9 |
| 20260506103721 | 66 | 112 | 0.0 | 0.0 | 0.19 | 0.53 | 0.53 | 99 | 1011.9 |
| 20260506103218 | 66 | 146 | 1.0 | 2.0 | 0.19 | 0.51 | 0.51 | 99 | 1011.8 |
| 20260506102716 | 66 | 83 | 0.0 | 0.0 | 0.12 | 0.49 | 0.49 | 99 | 1011.7 |
| 20260506102214 | 66 | 127 | 0.0 | 1.0 | 0.19 | 0.48 | 0.48 | 99 | 1012.2 |
| 20260506101710 | 66 | 125 | 0.0 | 1.0 | 0.50 | 0.47 | 0.47 | 99 | 1012.2 |
| 20260506101207 | 66 | 238 | 0.0 | 2.0 | 0.54 | 0.42 | 0.42 | 99 | 1012.4 |
| 20260506100705 | 66 | 118 | 0.0 | 0.0 | 0.47 | 0.37 | 0.37 | 99 | 1012.4 |
| 20260506100203 | 66 | 124 | 0.0 | 0.0 | 0.40 | 0.32 | 0.32 | 99 | 1012.4 |
| 20260506095701 | 66 | 135 | 0.0 | 0.0 | 0.35 | 0.28 | 0.28 | 98 | 1012.1 |
| 20260506095157 | 66 | 135 | 0.0 | 0.0 | 0.24 | 0.24 | 0.24 | 98 | 1011.9 |
| 20260506094654 | 66 | 117 | 0.0 | 0.0 | 0.24 | 0.22 | 0.22 | 98 | 1011.8 |
| 20260506094152 | 66 | 118 | 0.0 | 0.0 | 0.47 | 0.20 | 0.20 | 97 | 1011.9 |
| 20260506093651 | 67 | 111 | 0.0 | 0.0 | 0.50 | 0.16 | 0.16 | 97 | 1011.8 |
| 20260506093147 | 67 | 87 | 0.0 | 1.0 | 0.42 | 0.11 | 0.11 | 96 | 1011.6 |
| 20260506092645 | 67 | 149 | 0.0 | 1.0 | 0.17 | 0.06 | 0.06 | 96 | 1011.3 |
| 20260506092142 | 67 | 106 | 0.0 | 0.0 | 0.05 | 0.04 | 0.04 | 95 | 1011.0 |
| 20260506091640 | 67 | 134 | 1.0 | 1.0 | 0.07 | 0.03 | 0.03 | 95 | 1011.1 |
| 20260506091137 | 68 | 19 | 1.0 | 1.0 | 0.00 | 0.02 | 0.02 | 94 | 1011.1 |
| 20260506090635 | 68 | 145 | 0.0 | 1.0 | 0.05 | 0.02 | 0.02 | 93 | 1010.9 |
| 20260506090131 | 68 | 124 | 0.0 | 0.0 | 0.05 | 0.02 | 0.02 | 93 | 1011.0 |
| 20260506085629 | 68 | 111 | 1.0 | 1.0 | 0.00 | 0.01 | 0.01 | 92 | 1011.0 |
| 20260506085125 | 68 | 118 | 0.0 | 0.0 | 0.00 | 0.01 | 0.01 | 92 | 1010.8 |
| 20260506084621 | 68 | 124 | 0.0 | 1.0 | 0.00 | 0.01 | 0.01 | 92 | 1011.1 |
| 20260506084118 | 68 | 136 | 0.0 | 1.0 | 0.00 | 0.01 | 0.01 | 91 | 1011.0 |
| 20260506083615 | 68 | 120 | 0.0 | 1.0 | 0.00 | 0.01 | 0.01 | 91 | 1010.6 |
| 20260506083113 | 69 | 120 | 0.0 | 1.0 | 0.00 | 0.01 | 0.01 | 89 | 1010.7 |
| 20260506082609 | 69 | 73 | 0.0 | 2.0 | 0.00 | 0.01 | 0.01 | 90 | 1010.7 |
| 20260506082105 | 68 | 72 | 0.0 | 1.0 | 0.00 | 0.01 | 0.01 | 90 | 1010.6 |
| 20260506081603 | 69 | 150 | 1.0 | 2.0 | 0.07 | 0.01 | 0.01 | 89 | 1010.5 |
| 20260506081100 | 69 | 44 | 1.0 | 3.0 | 0.00 | 0.00 | 0.00 | 89 | 1010.4 |
| 20260506080558 | 69 | 227 | 2.0 | 3.0 | 0.00 | 0.00 | 0.00 | 88 | 1010.6 |
| 20260506073038 | 71 | 192 | 3.0 | 7.0 | 0.00 | 0.00 | 0.00 | 81 | 1010.9 |
| 20260506072535 | 71 | 126 | 1.0 | 1.0 | 0.00 | 0.00 | 0.00 | 81 | 1011.1 |
| 20260506072033 | 71 | 122 | 1.0 | 1.0 | 0.00 | 0.00 | 0.00 | 81 | 1011.0 |
| 20260506071531 | 71 | 199 | 2.0 | 3.0 | 0.00 | 0.00 | 0.00 | 81 | 1011.0 |
| 20260506071028 | 70 | 55 | 1.0 | 3.0 | 0.00 | 0.00 | 0.00 | 81 | 1010.8 |
| 20260506070525 | 70 | 180 | 1.0 | 2.0 | 0.00 | 0.00 | 0.00 | 81 | 1011.0 |
| 20260506062502 | 69 | 62 | 1.0 | 6.0 | 0.00 | 0.00 | 0.00 | 80 | 1010.4 |
| 20260506061959 | 69 | 188 | 1.0 | 2.0 | 0.00 | 0.00 | 0.00 | 80 | 1010.6 |
| 20260506061455 | 69 | 113 | 2.0 | 3.0 | 0.00 | 0.00 | 0.00 | 80 | 1010.8 |
| 20260506060953 | 69 | 89 | 1.0 | 2.0 | 0.00 | 0.00 | 0.00 | 80 | 1010.4 |
| 20260506060451 | 69 | 139 | 0.0 | 3.0 | 0.00 | 0.00 | 0.00 | 79 | 1010.6 |
| 20260506050920 | 69 | 329 | 1.0 | 2.0 | 0.00 | 0.00 | 0.00 | 77 | 1011.2 |
| 20260506050417 | 69 | 247 | 1.0 | 3.0 | 0.00 | 0.00 | 0.00 | 78 | 1011.4 |
| 20260506044908 | 69 | 55 | 1.0 | 2.0 | 0.00 | 0.03 | 0.03 | 78 | 1011.7 |
| 20260506044406 | 69 | 87 | 1.0 | 2.0 | 0.00 | 0.03 | 0.03 | 77 | 1011.8 |
| 20260506043903 | 69 | 209 | 1.0 | 3.0 | 0.00 | 0.03 | 0.03 | 77 | 1011.6 |
| 20260506043400 | 69 | 319 | 3.0 | 3.0 | 0.00 | 0.03 | 0.03 | 77 | 1011.7 |
| 20260506042858 | 69 | 73 | 2.0 | 3.0 | 0.00 | 0.03 | 0.03 | 77 | 1011.7 |
| 20260506042357 | 69 | 178 | 1.0 | 5.0 | 0.00 | 0.03 | 0.03 | 77 | 1011.8 |
| 20260506041855 | 69 | 101 | 1.0 | 1.0 | 0.00 | 0.03 | 0.03 | 76 | 1012.1 |
| 20260506041354 | 69 | 197 | 3.0 | 5.0 | 0.00 | 0.03 | 0.03 | 77 | 1012.0 |
| 20260506040849 | 69 | 251 | 2.0 | 2.0 | 0.00 | 0.03 | 0.03 | 78 | 1012.0 |
| 20260506040346 | 69 | 98 | 0.0 | 2.0 | 0.00 | 0.03 | 0.03 | 78 | 1012.1 |
| 20260506035842 | 69 | 4 | 2.0 | 2.0 | 0.00 | 0.03 | 0.03 | 76 | 1012.2 |
| 20260506035340 | 69 | 17 | 2.0 | 3.0 | 0.00 | 0.03 | 0.03 | 76 | 1012.1 |
| 20260506034837 | 69 | 216 | 1.0 | 3.0 | 0.00 | 0.03 | 0.03 | 76 | 1012.3 |
| 20260506034334 | 69 | 246 | 2.0 | 3.0 | 0.00 | 0.03 | 0.03 | 76 | 1012.3 |
| 20260506033831 | 69 | 178 | 3.0 | 5.0 | 0.00 | 0.03 | 0.03 | 76 | 1012.4 |
| 20260506033328 | 69 | 275 | 2.0 | 3.0 | 0.00 | 0.03 | 0.03 | 76 | 1012.5 |
| 20260506032825 | 69 | 19 | 1.0 | 3.0 | 0.00 | 0.03 | 0.03 | 76 | 1012.5 |
| 20260506032322 | 69 | 154 | 0.0 | 2.0 | 0.00 | 0.03 | 0.03 | 77 | 1012.4 |
| 20260506031819 | 69 | 98 | 1.0 | 2.0 | 0.00 | 0.03 | 0.03 | 77 | 1012.5 |
| 20260506031316 | 69 | 67 | 1.0 | 2.0 | 0.00 | 0.03 | 0.03 | 77 | 1012.4 |
| 20260506030814 | 69 | 170 | 0.0 | 1.0 | 0.00 | 0.03 | 0.03 | 78 | 1012.3 |
| 20260506030311 | 68 | 37 | 0.0 | 2.0 | 0.00 | 0.03 | 0.03 | 78 | 1012.3 |
| 20260506025808 | 68 | 58 | 2.0 | 2.0 | 0.00 | 0.03 | 0.03 | 78 | 1012.4 |
| 20260506025305 | 69 | 102 | 0.0 | 1.0 | 0.00 | 0.03 | 0.03 | 77 | 1012.4 |
| 20260506024802 | 69 | 87 | 2.0 | 2.0 | 0.00 | 0.03 | 0.03 | 77 | 1012.5 |
| 20260506024258 | 68 | 143 | 1.0 | 3.0 | 0.00 | 0.03 | 0.03 | 78 | 1012.4 |
| 20260506023754 | 69 | 65 | 1.0 | 3.0 | 0.00 | 0.03 | 0.03 | 77 | 1012.3 |
| 20260506023252 | 69 | 310 | 3.0 | 3.0 | 0.00 | 0.03 | 0.03 | 77 | 1012.1 |
| 20260506022748 | 69 | 58 | 1.0 | 2.0 | 0.00 | 0.03 | 0.03 | 77 | 1012.2 |
| 20260506022246 | 69 | 89 | 0.0 | 5.0 | 0.00 | 0.03 | 0.03 | 77 | 1011.9 |
| 20260506021744 | 69 | 105 | 0.0 | 3.0 | 0.00 | 0.03 | 0.03 | 79 | 1012.0 |
| 20260506021240 | 69 | 192 | 4.0 | 6.0 | 0.00 | 0.03 | 0.03 | 77 | 1011.9 |
| 20260506020737 | 69 | 288 | 2.0 | 2.0 | 0.00 | 0.03 | 0.03 | 77 | 1011.9 |
| 20260506020235 | 69 | 184 | 4.0 | 6.0 | 0.00 | 0.03 | 0.03 | 77 | 1011.9 |
| 20260506015732 | 69 | 175 | 0.0 | 2.0 | 0.00 | 0.03 | 0.03 | 78 | 1012.0 |
| 20260506015230 | 69 | 57 | 2.0 | 3.0 | 0.00 | 0.03 | 0.03 | 76 | 1012.2 |
| 20260506014727 | 69 | 345 | 2.0 | 2.0 | 0.00 | 0.03 | 0.03 | 76 | 1012.3 |
| 20260506014223 | 69 | 120 | 2.0 | 3.0 | 0.00 | 0.03 | 0.03 | 75 | 1012.0 |
| 20260506013720 | 70 | 272 | 2.0 | 8.0 | 0.00 | 0.03 | 0.03 | 75 | 1012.0 |
| 20260506013217 | 69 | 235 | 5.0 | 7.0 | 0.00 | 0.03 | 0.03 | 74 | 1012.1 |
| 20260506012713 | 70 | 45 | 1.0 | 7.0 | 0.00 | 0.03 | 0.03 | 73 | 1012.1 |
| 20260506012211 | 70 | 260 | 1.0 | 3.0 | 0.00 | 0.03 | 0.03 | 73 | 1012.0 |
| 20260506011708 | 70 | 120 | 4.0 | 9.0 | 0.00 | 0.03 | 0.03 | 72 | 1011.9 |
| 20260506011204 | 70 | 116 | 3.0 | 5.0 | 0.00 | 0.03 | 0.03 | 72 | 1012.2 |
| 20260506010702 | 70 | 126 | 2.0 | 3.0 | 0.00 | 0.03 | 0.03 | 72 | 1012.0 |
| 20260506010159 | 69 | 30 | 2.0 | 2.0 | 0.00 | 0.03 | 0.03 | 72 | 1012.2 |
| 20260506005656 | 70 | 216 | 1.0 | 2.0 | 0.00 | 0.03 | 0.03 | 72 | 1012.1 |
| 20260506005153 | 70 | 64 | 1.0 | 5.0 | 0.00 | 0.03 | 0.03 | 72 | 1012.0 |
| 20260506004649 | 70 | 37 | 1.0 | 3.0 | 0.00 | 0.03 | 0.03 | 72 | 1011.8 |
| 20260506004147 | 69 | 32 | 0.0 | 1.0 | 0.00 | 0.03 | 0.03 | 72 | 1011.9 |
| 20260506003643 | 70 | 148 | 1.0 | 2.0 | 0.00 | 0.03 | 0.03 | 71 | 1012.0 |
| 20260506003139 | 70 | 14 | 2.0 | 5.0 | 0.00 | 0.03 | 0.03 | 71 | 1012.2 |
| 20260506002635 | 70 | 249 | 3.0 | 5.0 | 0.00 | 0.03 | 0.03 | 71 | 1011.9 |
| 20260506002131 | 70 | 17 | 1.0 | 3.0 | 0.00 | 0.03 | 0.03 | 71 | 1011.8 |
| 20260506001627 | 70 | 76 | 0.0 | 5.0 | 0.00 | 0.03 | 0.03 | 70 | 1011.8 |
| 20260506001125 | 70 | 85 | 1.0 | 6.0 | 0.00 | 0.03 | 0.03 | 70 | 1011.6 |
| 20260506000622 | 70 | 347 | 2.0 | 3.0 | 0.00 | 0.03 | 0.03 | 71 | 1011.6 |
| 20260506000119 | 70 | 13 | 0.0 | 5.0 | 0.00 | 0.03 | 0.03 | 70 | 1011.6 |
| 20260505235617 | 70 | 96 | 1.0 | 7.0 | 0.00 | 0.03 | 0.03 | 69 | 1011.4 |